{"data":{"norad_id":67313,"epoch":"2026-05-24T23:40:44.341248Z","epoch_age_seconds":72078,"freshness":"FRESH","line1":"1 67313U 26002J   26144.98662432  .00017282  00000+0  63601-3 0  9995","line2":"2 67313  43.0016 254.7220 0001618 280.3850  79.6819 15.27583648 22902","mean_motion":15.27583648,"eccentricity":0.0001618,"inclination_deg":43.0016,"raan_deg":254.722,"arg_perigee_deg":280.385,"mean_anomaly_deg":79.6819,"bstar":0.00063601,"rev_number":2290,"period_min":94.266523596618,"perigee_km":481.9280344941,"apogee_km":484.14831077996,"semimajor_km":6861.175172637,"source":"CELESTRAK","updated_at":"2026-05-25T13:38:21.516239Z"}}